Home   Weather   Charleroi   Past weeks

Flag for Belgium Past Weather in Charleroi, Belgium — Yesterday and Last 2 Weeks

Now
28 °F

Sunny.


Feels Like: 20 °F
Forecast: 18 / 29 °F
Wind: 8 mph from Northeast

Location: Charleroi / Gosselies

Current Time: Jan 17, 2017 at 4:24:12 pm

Latest Report: Jan 17, 2017 at 3:50 pm


Visibility: 10 mi

Pressure: 30.60 "Hg

Humidity: 74%

Dew Point: 21 °F

Location of CharleroiLocation

Past Weather in Charleroi — Graph

°F

Charleroi Temperature Yesterday

Maximum temperature yesterday: 34 °F (at 1:50 am)
Minimum temperature yesterday: 27 °F (at 9:50 pm)
Average temperature yesterday: 32 °F

High & Low Weather Summary for the Past Weeks

 TemperatureHumidityPressure
High48 °F (Jan 11, 2:50 pm)100% (Jan 2, 4:50 pm)30.72 "Hg (Jan 2, 4:50 pm)
Low21 °F (Jan 6, 8:50 am)40% (Jan 15, 4:50 pm)28.94 "Hg (Jan 12, 11:20 pm)
Average34 °F86%30.17 "Hg
* Reported Jan 2 3:20 pm — Jan 17 3:20 pm, Charleroi, Weather by CustomWeather, © 2017

Note: Actual official high and low records may vary slightly from our data, if they occured in-between our weather recording intervals... More about our weather records

Advertising

Charleroi Weather History for the Previous 24 Hours

Scroll right to see more
 ConditionsComfort  
Time TempWeatherWind HumidityBarometerVisibility
3:20 pm
Tue, Jan 17
28 °FPassing clouds.8 mph55%30.60 "HgN/A
2:50 pm28 °FSunny.9 mph47%30.57 "Hg10 mi
2:20 pm28 °FSunny.9 mph74%30.57 "Hg10 mi
1:50 pm28 °FPassing clouds.8 mph74%30.60 "HgN/A
1:20 pm28 °FPassing clouds.10 mph47%30.60 "HgN/A
12:50 pm27 °FPassing clouds.10 mph46%30.60 "Hg6 mi
12:20 pm27 °FScattered clouds.9 mph46%30.60 "Hg4 mi
11:50 am27 °FPartly sunny.10 mph43%30.60 "Hg4 mi
11:20 am27 °FPartly sunny.10 mph59%30.60 "Hg4 mi
10:50 am25 °FPartly sunny.12 mph86%30.60 "Hg3 mi
10:20 am25 °FPartly sunny.10 mph50%30.60 "Hg3 mi
9:50 am25 °FIce fog.10 mph100%30.57 "Hg3 mi
9:20 am25 °FIce fog.12 mph86%30.57 "Hg3 mi
8:50 am25 °FPartly sunny.12 mph86%30.57 "Hg2 mi
8:20 am25 °FIce fog.8 mph63%30.54 "Hg2 mi
7:50 am25 °FIce fog.10 mph86%30.54 "Hg2 mi
7:20 am25 °FIce fog.8 mph86%30.54 "Hg3 mi
6:50 am25 °FIce fog.10 mph86%30.54 "Hg3 mi
6:20 am25 °FIce fog.9 mph93%30.51 "Hg2 mi
5:50 am25 °FIce fog.10 mph100%30.51 "Hg2 mi
5:20 am27 °FIce fog.8 mph86%30.51 "Hg2 mi
4:50 am27 °FIce fog.9 mph93%30.51 "Hg2 mi
4:20 am27 °FIce fog.9 mph93%30.51 "Hg2 mi
3:50 am27 °FIce fog.9 mph93%30.51 "Hg2 mi
3:20 am27 °FIce fog.12 mph86%30.51 "Hg2 mi
2:50 am27 °FIce fog.10 mph86%30.48 "Hg2 mi
2:20 am27 °FLight snow. Ice fog.10 mph93%30.48 "Hg2 mi
1:50 am27 °FIce fog.7 mph93%30.48 "Hg2 mi
1:20 am27 °FIce fog.9 mph80%30.48 "Hg2 mi
12:50 am27 °FIce fog.8 mph93%30.48 "Hg2 mi
12:20 am27 °FIce fog.10 mph93%30.48 "Hg2 mi
11:50 pm
Mon, Jan 16
28 °FIce fog.9 mph86%30.45 "Hg2 mi
11:20 pm28 °FIce fog.10 mph86%30.45 "Hg2 mi
10:50 pm28 °FIce fog.8 mph93%30.45 "Hg2 mi
10:20 pm27 °FIce fog.7 mph93%30.45 "Hg2 mi
9:50 pm27 °FIce fog.8 mph93%30.42 "Hg2 mi
9:20 pm28 °FIce fog.9 mph93%30.42 "Hg3 mi
8:50 pm28 °FClear.9 mph93%30.42 "Hg4 mi
8:20 pm28 °FPassing clouds.6 mph93%30.39 "Hg4 mi
7:50 pm28 °FPassing clouds.7 mph93%30.39 "Hg4 mi
7:20 pm28 °FPassing clouds.7 mph93%30.39 "Hg6 mi
6:50 pm30 °FPassing clouds.7 mph86%30.36 "Hg6 mi
6:20 pm30 °FPassing clouds.7 mph86%30.36 "Hg6 mi
5:50 pm30 °FPassing clouds.6 mph86%30.36 "Hg6 mi
5:20 pm30 °FPassing clouds.5 mph86%30.33 "Hg6 mi
4:50 pm32 °FPartly sunny.6 mph80%30.33 "Hg6 mi
4:20 pm32 °FPartly sunny.8 mph87%30.33 "Hg6 mi
Weather by CustomWeather, © 2017

See weather overviewHow to use our weather pages